| time (UTC) | temp C | wind direction | speed KPH | gust KPH | rain 1hr cm | rain 24hr cm | rain mn cm | humidity % | barometer mb |
| 20260507073852 | 5 | 306 | 0.0 | 8.0 | 0.00 | 0.38 | 0.00 | 94 | 1005.2 |
| 20260507072952 | 5 | 299 | 0.0 | 1.6 | 0.00 | 0.38 | 0.00 | 94 | 1004.9 |
| 20260507072052 | 5 | 299 | 0.0 | 3.2 | 0.00 | 0.38 | 0.00 | 94 | 1004.9 |
| 20260507071151 | 5 | 326 | 0.0 | 1.6 | 0.00 | 0.38 | 0.00 | 94 | 1004.9 |
| 20260507070252 | 5 | 307 | 0.0 | 4.8 | 0.00 | 0.38 | 0.00 | 94 | 1004.4 |
| 20260507064452 | 5 | 0 | 0.0 | 0.0 | 0.00 | 0.38 | 0.00 | 94 | 1004.4 |
| 20260507063551 | 5 | 295 | 0.0 | 3.2 | 0.00 | 0.38 | 0.00 | 94 | 1004.3 |
| 20260507062652 | 5 | 295 | 0.0 | 6.4 | 0.00 | 0.38 | 0.00 | 94 | 1004.4 |
| 20260507060851 | 5 | 0 | 0.0 | 0.0 | 0.00 | 0.38 | 0.00 | 94 | 1004.7 |
| 20260507055951 | 5 | 278 | 0.0 | 4.8 | 0.00 | 0.38 | 0.00 | 94 | 1004.8 |
| 20260507055052 | 5 | 273 | 0.0 | 1.6 | 0.00 | 0.38 | 0.00 | 94 | 1004.9 |
| 20260507054152 | 5 | 0 | 0.0 | 0.0 | 0.00 | 0.38 | 0.00 | 94 | 1005.0 |
| 20260507053251 | 5 | 0 | 0.0 | 0.0 | 0.00 | 0.38 | 0.00 | 95 | 1005.4 |
| 20260507052351 | 5 | 0 | 0.0 | 0.0 | 0.00 | 0.38 | 0.00 | 94 | 1005.3 |
| 20260507051451 | 5 | 273 | 0.0 | 1.6 | 0.00 | 0.38 | 0.00 | 94 | 1005.1 |
| 20260507050551 | 6 | 273 | 0.0 | 4.8 | 0.00 | 0.38 | 0.00 | 95 | 1005.0 |
| 20260507045651 | 6 | 273 | 0.0 | 4.8 | 0.00 | 0.38 | 0.00 | 95 | 1005.0 |
| 20260507044751 | 6 | 273 | 0.0 | 1.6 | 0.00 | 0.38 | 0.00 | 95 | 1004.8 |
| 20260507043851 | 6 | 0 | 0.0 | 0.0 | 0.00 | 0.38 | 0.00 | 95 | 1004.9 |
| 20260507042951 | 6 | 274 | 0.0 | 1.6 | 0.00 | 0.38 | 0.00 | 95 | 1004.8 |
| 20260507042051 | 6 | 273 | 0.0 | 3.2 | 0.00 | 0.38 | 0.00 | 95 | 1004.8 |
| 20260507041151 | 6 | 0 | 0.0 | 0.0 | 0.00 | 0.38 | 0.00 | 95 | 1005.0 |
| 20260507040251 | 6 | 274 | 0.0 | 3.2 | 0.00 | 0.38 | 0.00 | 95 | 1004.9 |
| 20260507035351 | 6 | 275 | 0.0 | 3.2 | 0.00 | 0.38 | 0.38 | 95 | 1004.9 |
| 20260507033551 | 6 | 306 | 1.6 | 8.0 | 0.03 | 0.38 | 0.38 | 95 | 1004.6 |
| 20260507032651 | 7 | 322 | 0.0 | 8.0 | 0.03 | 0.38 | 0.38 | 95 | 1004.8 |
| 20260507031751 | 7 | 285 | 0.0 | 3.2 | 0.03 | 0.38 | 0.38 | 95 | 1004.7 |
| 20260507030851 | 7 | 293 | 0.0 | 4.8 | 0.08 | 0.38 | 0.38 | 95 | 1004.9 |
| 20260507025951 | 7 | 310 | 0.0 | 4.8 | 0.08 | 0.38 | 0.38 | 95 | 1004.8 |
| 20260507025051 | 7 | 307 | 0.0 | 4.8 | 0.08 | 0.38 | 0.38 | 95 | 1005.0 |
| 20260507023251 | 7 | 287 | 0.0 | 6.4 | 0.10 | 0.36 | 0.36 | 95 | 1005.0 |
| 20260507022351 | 7 | 324 | 0.0 | 8.0 | 0.10 | 0.36 | 0.36 | 94 | 1005.1 |
| 20260507021451 | 7 | 323 | 1.6 | 12.9 | 0.10 | 0.33 | 0.33 | 94 | 1005.1 |
| 20260507020551 | 7 | 324 | 1.6 | 17.7 | 0.08 | 0.30 | 0.30 | 94 | 1005.1 |
| 20260507015651 | 7 | 333 | 1.6 | 14.5 | 0.08 | 0.30 | 0.30 | 94 | 1005.0 |
| 20260507014751 | 8 | 329 | 1.6 | 11.3 | 0.08 | 0.28 | 0.28 | 94 | 1005.0 |
| 20260507013851 | 8 | 313 | 1.6 | 8.0 | 0.05 | 0.25 | 0.25 | 94 | 1004.9 |
| 20260507012951 | 8 | 319 | 1.6 | 14.5 | 0.05 | 0.25 | 0.25 | 94 | 1004.8 |
| 20260507012051 | 8 | 318 | 1.6 | 12.9 | 0.05 | 0.25 | 0.25 | 94 | 1004.3 |
| 20260506222408 | 13 | 185 | 1.6 | 6.4 | 0.00 | 0.10 | 0.10 | 94 | 1002.0 |
| 20260506221507 | 13 | 216 | 1.6 | 12.9 | 0.00 | 0.10 | 0.10 | 94 | 1002.0 |
| 20260506220607 | 13 | 177 | 1.6 | 8.0 | 0.00 | 0.10 | 0.10 | 94 | 1002.0 |
| 20260506215707 | 13 | 183 | 0.0 | 8.0 | 0.00 | 0.10 | 0.10 | 94 | 1002.1 |
| 20260506214807 | 13 | 198 | 0.0 | 6.4 | 0.00 | 0.10 | 0.10 | 95 | 1002.0 |
| 20260506212107 | 13 | 168 | 1.6 | 11.3 | 0.00 | 0.10 | 0.10 | 94 | 1002.1 |
| 20260506211207 | 13 | 179 | 0.0 | 6.4 | 0.00 | 0.10 | 0.10 | 94 | 1002.1 |
| 20260506204507 | 13 | 183 | 0.0 | 6.4 | 0.00 | 0.10 | 0.10 | 94 | 1002.3 |
| 20260506203607 | 13 | 174 | 1.6 | 16.1 | 0.00 | 0.10 | 0.10 | 94 | 1002.2 |
| 20260506202707 | 13 | 182 | 1.6 | 11.3 | 0.00 | 0.10 | 0.10 | 94 | 1002.3 |
| 20260506201807 | 13 | 174 | 1.6 | 12.9 | 0.00 | 0.10 | 0.10 | 94 | 1002.3 |
| 20260506200907 | 13 | 193 | 1.6 | 8.0 | 0.00 | 0.10 | 0.10 | 94 | 1002.3 |
| 20260506200007 | 13 | 178 | 3.2 | 17.7 | 0.00 | 0.10 | 0.10 | 94 | 1002.3 |
| 20260506195107 | 13 | 174 | 1.6 | 11.3 | 0.03 | 0.10 | 0.10 | 94 | 1002.4 |
| 20260506194207 | 13 | 171 | 1.6 | 16.1 | 0.03 | 0.10 | 0.10 | 94 | 1002.4 |
| 20260506193307 | 13 | 169 | 1.6 | 17.7 | 0.05 | 0.10 | 0.10 | 94 | 1002.7 |
| 20260506192407 | 13 | 169 | 3.2 | 17.7 | 0.05 | 0.10 | 0.10 | 94 | 1002.7 |
| 20260506190607 | 13 | 165 | 0.0 | 8.0 | 0.08 | 0.10 | 0.10 | 94 | 1002.8 |
| 20260506185707 | 13 | 173 | 1.6 | 9.7 | 0.08 | 0.10 | 0.10 | 94 | 1003.1 |
| 20260506183907 | 13 | 131 | 0.0 | 4.8 | 0.08 | 0.08 | 0.08 | 94 | 1003.2 |
| 20260506183007 | 13 | 179 | 1.6 | 14.5 | 0.05 | 0.05 | 0.05 | 94 | 1003.2 |
| 20260506182107 | 13 | 188 | 1.6 | 6.4 | 0.05 | 0.05 | 0.05 | 94 | 1003.6 |
| 20260506181207 | 13 | 168 | 1.6 | 6.4 | 0.05 | 0.05 | 0.05 | 94 | 1003.7 |
| 20260506180307 | 13 | 179 | 1.6 | 6.4 | 0.03 | 0.03 | 0.03 | 94 | 1003.7 |
| 20260506175407 | 13 | 183 | 1.6 | 8.0 | 0.03 | 0.03 | 0.03 | 94 | 1004.3 |
| 20260506174507 | 13 | 178 | 1.6 | 8.0 | 0.00 | 0.00 | 0.00 | 93 | 1004.4 |
| 20260506173607 | 13 | 194 | 0.0 | 6.4 | 0.00 | 0.00 | 0.00 | 93 | 1004.6 |
| 20260506172707 | 13 | 224 | 1.6 | 6.4 | 0.00 | 0.00 | 0.00 | 93 | 1004.6 |
| 20260506171807 | 13 | 192 | 1.6 | 6.4 | 0.00 | 0.00 | 0.00 | 93 | 1004.6 |
| 20260506170907 | 13 | 179 | 1.6 | 8.0 | 0.00 | 0.00 | 0.00 | 92 | 1004.6 |
| 20260506170007 | 14 | 181 | 0.0 | 6.4 | 0.00 | 0.00 | 0.00 | 92 | 1004.6 |
| 20260506165107 | 14 | 172 | 1.6 | 9.7 | 0.00 | 0.00 | 0.00 | 91 | 1004.7 |
| 20260506164207 | 14 | 170 | 1.6 | 8.0 | 0.00 | 0.00 | 0.00 | 91 | 1004.7 |
| 20260506162407 | 15 | 205 | 1.6 | 8.0 | 0.00 | 0.00 | 0.00 | 90 | 1004.8 |
| 20260506161507 | 15 | 205 | 1.6 | 12.9 | 0.00 | 0.00 | 0.00 | 89 | 1004.8 |
| 20260506155707 | 15 | 170 | 1.6 | 9.7 | 0.00 | 0.00 | 0.00 | 88 | 1005.0 |
| 20260506154807 | 15 | 168 | 1.6 | 9.7 | 0.00 | 0.00 | 0.00 | 89 | 1005.2 |
| 20260506153907 | 15 | 164 | 1.6 | 9.7 | 0.00 | 0.00 | 0.00 | 88 | 1005.4 |
| 20260506153006 | 15 | 189 | 1.6 | 6.4 | 0.00 | 0.00 | 0.00 | 88 | 1005.4 |
| 20260506152107 | 15 | 177 | 3.2 | 9.7 | 0.00 | 0.00 | 0.00 | 87 | 1005.7 |
| 20260506150307 | 15 | 211 | 1.6 | 6.4 | 0.00 | 0.00 | 0.00 | 86 | 1005.9 |
| 20260506144507 | 15 | 182 | 1.6 | 11.3 | 0.00 | 0.00 | 0.00 | 85 | 1005.9 |
| 20260506141806 | 15 | 189 | 1.6 | 9.7 | 0.00 | 0.00 | 0.00 | 86 | 1005.8 |
| 20260506140907 | 15 | 174 | 1.6 | 9.7 | 0.00 | 0.00 | 0.00 | 88 | 1005.9 |
| 20260506140006 | 14 | 195 | 0.0 | 4.8 | 0.00 | 0.00 | 0.00 | 88 | 1005.8 |
| 20260506135107 | 13 | 189 | 1.6 | 9.7 | 0.00 | 0.00 | 0.00 | 89 | 1005.8 |
| 20260506134207 | 13 | 153 | 1.6 | 9.7 | 0.00 | 0.00 | 0.00 | 89 | 1005.8 |
| 20260506133306 | 13 | 185 | 1.6 | 8.0 | 0.00 | 0.00 | 0.00 | 89 | 1005.8 |
| 20260506131507 | 13 | 145 | 1.6 | 9.7 | 0.00 | 0.00 | 0.00 | 89 | 1006.1 |
| 20260506130606 | 13 | 178 | 1.6 | 6.4 | 0.00 | 0.00 | 0.00 | 89 | 1006.1 |
| 20260506125706 | 13 | 191 | 1.6 | 8.0 | 0.00 | 0.00 | 0.00 | 89 | 1006.4 |
| 20260506124806 | 13 | 198 | 1.6 | 8.0 | 0.00 | 0.00 | 0.00 | 89 | 1006.4 |
| 20260506123906 | 13 | 187 | 1.6 | 8.0 | 0.00 | 0.00 | 0.00 | 89 | 1006.4 |
| 20260506123006 | 13 | 185 | 1.6 | 6.4 | 0.00 | 0.00 | 0.00 | 90 | 1006.1 |
| 20260506122106 | 13 | 186 | 1.6 | 8.0 | 0.00 | 0.00 | 0.00 | 90 | 1006.0 |
| 20260506121206 | 12 | 181 | 1.6 | 14.5 | 0.00 | 0.00 | 0.00 | 90 | 1005.7 |
| 20260506120306 | 12 | 177 | 1.6 | 9.7 | 0.00 | 0.00 | 0.00 | 90 | 1006.0 |
| 20260506115406 | 12 | 189 | 1.6 | 8.0 | 0.00 | 0.00 | 0.00 | 91 | 1006.1 |
| 20260506114506 | 12 | 185 | 1.6 | 8.0 | 0.00 | 0.00 | 0.00 | 91 | 1006.2 |
| 20260506113606 | 12 | 183 | 1.6 | 16.1 | 0.00 | 0.00 | 0.00 | 91 | 1006.2 |
| 20260506111806 | 12 | 195 | 1.6 | 12.9 | 0.00 | 0.00 | 0.00 | 92 | 1006.2 |
| 20260506110906 | 11 | 193 | 1.6 | 8.0 | 0.00 | 0.00 | 0.00 | 93 | 1006.4 |
| 20260506110006 | 11 | 181 | 0.0 | 8.0 | 0.00 | 0.00 | 0.00 | 93 | 1006.2 |
| 20260506105106 | 11 | 175 | 0.0 | 6.4 | 0.00 | 0.00 | 0.00 | 93 | 1006.1 |
| 20260506104206 | 10 | 181 | 0.0 | 6.4 | 0.00 | 0.00 | 0.00 | 93 | 1006.2 |
| 20260506103306 | 10 | 178 | 0.0 | 3.2 | 0.00 | 0.00 | 0.00 | 93 | 1006.3 |
| 20260506102406 | 10 | 178 | 0.0 | 6.4 | 0.00 | 0.00 | 0.00 | 93 | 1006.2 |
| 20260506101506 | 10 | 178 | 0.0 | 3.2 | 0.00 | 0.00 | 0.00 | 93 | 1006.4 |
| 20260506100606 | 10 | 178 | 0.0 | 4.8 | 0.00 | 0.00 | 0.00 | 93 | 1006.2 |
| 20260506094806 | 10 | 171 | 0.0 | 1.6 | 0.00 | 0.00 | 0.00 | 91 | 1006.1 |
| 20260506092106 | 10 | 0 | 0.0 | 0.0 | 0.00 | 0.00 | 0.00 | 91 | 1006.0 |
| 20260506090306 | 10 | 0 | 0.0 | 0.0 | 0.00 | 0.00 | 0.00 | 90 | 1006.2 |
| 20260506085406 | 10 | 0 | 0.0 | 0.0 | 0.00 | 0.00 | 0.00 | 90 | 1006.2 |
| 20260506084506 | 10 | 0 | 0.0 | 0.0 | 0.00 | 0.00 | 0.00 | 90 | 1006.2 |
| 20260506083606 | 10 | 171 | 0.0 | 3.2 | 0.00 | 0.00 | 0.00 | 90 | 1006.4 |
| 20260506082706 | 10 | 171 | 0.0 | 1.6 | 0.00 | 0.00 | 0.00 | 90 | 1006.3 |
| 20260506081806 | 10 | 0 | 0.0 | 0.0 | 0.00 | 0.00 | 0.00 | 89 | 1006.5 |